Time,TemperatureF,DewpointF,PressureIn,WindDirection,WindDirectionDegrees,WindSpeedMPH,WindSpeedGustMPH,Humidity,HourlyPrecipIn,Conditions,Clouds,dailyrainin,SoftwareType,DateUTC
2013-02-08 00:00:00,43.3,42.8,29.94,SSW,198,0.0,3.0,98,0.00,CLR,,0.00,WeatherDisplay:10.37,2013-02-08 08:00:00,
2013-02-08 00:15:00,43.3,42.8,29.94,WSW,255,5.0,6.0,98,0.00,CLR,,0.00,WeatherDisplay:10.37,2013-02-08 08:15:00,
2013-02-08 00:30:00,43.2,42.6,29.94,East,87,0.0,5.0,98,0.00,CLR,,0.00,WeatherDisplay:10.37,2013-02-08 08:30:00,
2013-02-08 00:45:00,43.7,43.1,29.94,ESE,116,2.0,3.0,98,0.00,CLR,,0.00,WeatherDisplay:10.37,2013-02-08 08:45:00,
2013-02-08 01:00:00,44.2,43.7,29.94,SE,139,2.0,5.0,98,0.00,CLR,,0.00,WeatherDisplay:10.37,2013-02-08 09:00:00,
2013-02-08 01:15:00,44.8,44.3,29.94,WNW,290,20.0,22.0,98,0.00,CLR,,0.00,WeatherDisplay:10.37,2013-02-08 09:15:00,
2013-02-08 01:30:00,45.0,44.4,29.94,WNW,292,14.0,20.0,98,0.00,CLR,,0.00,WeatherDisplay:10.37,2013-02-08 09:30:00,
2013-02-08 01:45:00,45.0,44.4,29.94,WNW,295,8.0,13.0,98,0.00,CLR,,0.00,WeatherDisplay:10.37,2013-02-08 09:45:00,
2013-02-08 02:00:00,44.2,43.7,29.94,WNW,284,2.0,10.0,98,0.00,CLR,,0.00,WeatherDisplay:10.37,2013-02-08 10:00:00,
2013-02-08 02:15:00,44.2,43.7,29.94,WSW,238,0.0,3.0,98,0.00,CLR,,0.00,WeatherDisplay:10.37,2013-02-08 10:15:00,
2013-02-08 02:30:00,43.9,43.4,29.91,SE,126,1.0,3.0,98,0.00,CLR,,0.00,WeatherDisplay:10.37,2013-02-08 10:30:00,
2013-02-08 02:45:00,43.7,43.2,29.91,SE,130,1.0,3.0,98,0.00,CLR,,0.00,WeatherDisplay:10.37,2013-02-08 10:45:00,
2013-02-08 03:00:00,43.6,43.0,29.94,SE,134,1.0,2.0,98,0.00,CLR,,0.00,WeatherDisplay:10.37,2013-02-08 11:00:00,
2013-02-08 03:15:00,43.3,42.8,29.91,SE,126,2.0,5.0,98,0.00,CLR,,0.00,WeatherDisplay:10.37,2013-02-08 11:15:00,
2013-02-08 03:30:00,43.0,42.5,29.88,ESE,112,1.0,3.0,98,0.00,CLR,,0.00,WeatherDisplay:10.37,2013-02-08 11:30:00,
2013-02-08 03:45:00,42.5,42.0,29.91,East,81,0.0,2.0,98,0.00,CLR,,0.00,WeatherDisplay:10.37,2013-02-08 11:45:00,
2013-02-08 04:00:00,42.0,41.4,29.91,West,265,0.0,2.0,98,0.00,CLR,,0.00,WeatherDisplay:10.37,2013-02-08 12:00:00,
2013-02-08 04:15:00,41.5,41.0,29.91,NE,40,0.0,1.0,98,0.00,CLR,,0.00,WeatherDisplay:10.37,2013-02-08 12:15:00,
2013-02-08 04:30:00,41.4,40.8,29.91,ESE,106,0.0,2.0,98,0.00,CLR,,0.00,WeatherDisplay:10.37,2013-02-08 12:30:00,
2013-02-08 04:45:00,41.2,40.7,29.91,SSE,154,1.0,3.0,98,0.00,CLR,,0.00,WeatherDisplay:10.37,2013-02-08 12:45:00,
2013-02-08 05:00:00,41.2,40.7,29.91,NE,49,1.0,5.0,98,0.00,CLR,,0.00,WeatherDisplay:10.37,2013-02-08 13:00:00,
2013-02-08 05:15:00,42.4,41.9,29.91,North,3,5.0,6.0,98,0.00,CLR,,0.00,WeatherDisplay:10.37,2013-02-08 13:15:00,
2013-02-08 05:30:00,42.6,42.1,29.91,NNE,16,3.0,6.0,98,0.00,CLR,,0.00,WeatherDisplay:10.37,2013-02-08 13:30:00,
2013-02-08 05:45:00,42.8,42.3,29.91,ENE,75,6.0,8.0,98,0.00,CLR,,0.00,WeatherDisplay:10.37,2013-02-08 13:45:00,
2013-02-08 06:00:00,43.2,42.6,29.91,ENE,58,2.0,6.0,98,0.00,CLR,,0.00,WeatherDisplay:10.37,2013-02-08 14:00:00,
2013-02-08 06:15:00,43.0,42.5,29.91,East,92,1.0,4.0,98,0.00,CLR,,0.00,WeatherDisplay:10.37,2013-02-08 14:15:00,
2013-02-08 06:30:00,42.5,42.0,29.91,NNE,32,3.0,5.0,98,0.00,CLR,,0.00,WeatherDisplay:10.37,2013-02-08 14:30:00,
2013-02-08 06:45:00,41.9,41.4,29.91,ESE,115,2.0,4.0,98,0.00,CLR,,0.00,WeatherDisplay:10.37,2013-02-08 14:45:00,
2013-02-08 07:00:00,41.4,40.8,29.91,East,101,1.0,4.0,98,0.00,CLR,,0.00,WeatherDisplay:10.37,2013-02-08 15:00:00,
2013-02-08 07:15:00,41.4,40.9,29.94,ENE,62,3.0,5.0,98,0.00,CLR,,0.00,WeatherDisplay:10.37,2013-02-08 15:15:00,
2013-02-08 07:30:00,41.7,41.2,29.94,ENE,68,2.0,5.0,98,0.00,CLR,,0.00,WeatherDisplay:10.37,2013-02-08 15:30:00,
2013-02-08 07:45:00,41.7,41.2,29.94,NNE,15,3.0,5.0,98,0.00,CLR,,0.00,WeatherDisplay:10.37,2013-02-08 15:45:00,
2013-02-08 08:00:00,41.9,41.4,29.94,NE,55,2.0,5.0,98,0.00,CLR,,0.00,WeatherDisplay:10.37,2013-02-08 16:00:00,
2013-02-08 08:15:00,42.3,41.7,29.94,NNE,14,2.0,5.0,98,0.00,CLR,,0.00,WeatherDisplay:10.37,2013-02-08 16:15:00,
2013-02-08 08:30:00,42.6,42.0,29.94,North,7,3.0,6.0,98,0.00,CLR,,0.00,WeatherDisplay:10.37,2013-02-08 16:30:00,
2013-02-08 08:45:00,43.0,42.5,29.97,North,358,3.0,6.0,98,0.00,CLR,,0.00,WeatherDisplay:10.37,2013-02-08 16:45:00,
2013-02-08 09:00:00,44.2,43.7,29.97,NW,310,5.0,7.0,98,0.00,CLR,,0.00,WeatherDisplay:10.37,2013-02-08 17:00:00,
2013-02-08 09:30:00,46.8,46.2,29.97,NW,312,5.0,9.0,98,0.00,CLR,,0.00,WeatherDisplay:10.37,2013-02-08 17:30:00,
2013-02-08 09:45:00,47.5,46.9,29.97,NW,322,2.0,9.0,98,0.00,CLR,,0.00,WeatherDisplay:10.37,2013-02-08 17:45:00,
2013-02-08 10:00:00,47.9,47.4,29.97,WNW,291,3.0,10.0,98,0.00,CLR,,0.00,WeatherDisplay:10.37,2013-02-08 18:00:00,
2013-02-08 10:15:00,48.1,47.6,29.97,NNW,329,6.0,9.0,98,0.00,CLR,,0.00,WeatherDisplay:10.37,2013-02-08 18:15:00,
2013-02-08 10:30:00,48.6,47.5,29.97,WNW,292,7.0,13.0,96,0.00,CLR,,0.00,WeatherDisplay:10.37,2013-02-08 18:30:00,
2013-02-08 10:45:00,49.3,48.2,29.97,NNW,340,5.0,10.0,96,0.00,CLR,,0.00,WeatherDisplay:10.37,2013-02-08 18:45:00,
2013-02-08 11:00:00,49.6,47.7,29.97,NE,46,3.0,10.0,93,0.00,CLR,,0.00,WeatherDisplay:10.37,2013-02-08 19:00:00,
2013-02-08 11:15:00,49.7,47.2,29.97,NE,36,7.0,10.0,91,0.00,CLR,,0.00,WeatherDisplay:10.37,2013-02-08 19:15:00,
2013-02-08 11:30:00,50.7,48.5,29.97,NNW,336,3.0,6.0,92,0.00,CLR,,0.00,WeatherDisplay:10.37,2013-02-08 19:30:00,
2013-02-08 11:45:00,49.8,46.7,29.97,WNW,294,5.0,10.0,89,0.00,CLR,,0.00,WeatherDisplay:10.37,2013-02-08 19:45:00,
2013-02-08 12:00:00,50.0,47.8,29.97,West,273,5.0,10.0,92,0.00,CLR,,0.00,WeatherDisplay:10.37,2013-02-08 20:00:00,
2013-02-08 12:15:00,50.5,48.0,29.97,West,272,6.0,8.0,91,0.00,CLR,,0.00,WeatherDisplay:10.37,2013-02-08 20:15:00,
2013-02-08 12:30:00,51.8,49.3,29.94,WSW,254,5.0,7.0,91,0.00,CLR,,0.00,WeatherDisplay:10.37,2013-02-08 20:30:00,
2013-02-08 12:45:00,51.8,48.7,29.94,West,260,6.0,8.0,89,0.00,CLR,,0.00,WeatherDisplay:10.37,2013-02-08 20:45:00,
2013-02-08 13:00:00,51.6,48.8,29.94,WSW,256,6.0,8.0,90,0.00,CLR,,0.00,WeatherDisplay:10.37,2013-02-08 21:00:00,
2013-02-08 13:15:00,52.5,49.7,29.94,West,261,6.0,8.0,90,0.00,CLR,,0.00,WeatherDisplay:10.37,2013-02-08 21:15:00,
2013-02-08 13:30:00,53.0,50.5,29.94,WSW,254,6.0,8.0,91,0.00,CLR,,0.00,WeatherDisplay:10.37,2013-02-08 21:30:00,
2013-02-08 13:45:00,53.2,50.7,29.94,WSW,254,7.0,9.0,91,0.00,CLR,,0.00,WeatherDisplay:10.37,2013-02-08 21:45:00,
2013-02-08 14:00:00,52.9,50.0,29.94,West,259,7.0,12.0,90,0.00,CLR,,0.00,WeatherDisplay:10.37,2013-02-08 22:00:00,
2013-02-08 14:15:00,52.7,49.5,29.94,West,269,7.0,13.0,89,0.00,CLR,,0.00,WeatherDisplay:10.37,2013-02-08 22:15:00,
2013-02-08 14:30:00,52.3,50.1,29.94,West,273,8.0,19.0,92,0.00,CLR,,0.00,WeatherDisplay:10.37,2013-02-08 22:30:00,
2013-02-08 14:45:00,51.7,49.4,29.94,WNW,287,16.0,20.0,92,0.00,CLR,,0.00,WeatherDisplay:10.37,2013-02-08 22:45:00,
2013-02-08 15:00:00,51.4,48.9,29.94,WNW,291,21.0,23.0,91,0.00,CLR,,0.00,WeatherDisplay:10.37,2013-02-08 23:00:00,
2013-02-08 15:15:00,51.6,50.2,29.91,WNW,290,20.0,23.0,95,0.00,CLR,,0.00,WeatherDisplay:10.37,2013-02-08 23:15:00,
2013-02-08 15:30:00,51.4,49.8,29.94,WNW,293,22.0,26.0,94,0.00,CLR,,0.00,WeatherDisplay:10.37,2013-02-08 23:30:00,
2013-02-08 15:45:00,51.6,50.2,29.91,WNW,291,21.0,26.0,95,0.00,CLR,,0.00,WeatherDisplay:10.37,2013-02-08 23:45:00,
2013-02-08 16:00:00,51.4,50.3,29.91,WNW,290,20.0,25.0,96,0.00,CLR,,0.00,WeatherDisplay:10.37,2013-02-09 00:00:00,
2013-02-08 16:15:00,51.8,51.2,29.91,WNW,292,18.0,25.0,98,0.00,CLR,,0.00,WeatherDisplay:10.37,2013-02-09 00:15:00,
2013-02-08 16:30:00,51.6,51.1,29.91,WNW,292,20.0,23.0,98,0.00,CLR,,0.00,WeatherDisplay:10.37,2013-02-09 00:30:00,
2013-02-08 16:45:00,51.6,51.1,29.91,WNW,292,18.0,23.0,98,0.00,CLR,,0.00,WeatherDisplay:10.37,2013-02-09 00:45:00,
2013-02-08 17:00:00,51.6,51.1,29.91,WNW,292,17.0,18.0,98,0.00,CLR,,0.00,WeatherDisplay:10.37,2013-02-09 01:00:00,
2013-02-08 17:15:00,51.1,50.6,29.91,WNW,295,17.0,23.0,98,0.00,CLR,,0.00,WeatherDisplay:10.37,2013-02-09 01:15:00,
2013-02-08 17:30:00,50.9,50.4,29.88,WNW,296,16.0,20.0,98,0.00,CLR,,0.00,WeatherDisplay:10.37,2013-02-09 01:30:00,
2013-02-08 17:45:00,50.7,50.2,29.91,WNW,293,15.0,19.0,98,0.00,CLR,,0.00,WeatherDisplay:10.37,2013-02-09 01:45:00,
2013-02-08 18:00:00,50.7,50.1,29.91,WNW,293,15.0,20.0,98,0.00,CLR,,0.00,WeatherDisplay:10.37,2013-02-09 02:00:00,
2013-02-08 18:15:00,50.9,50.4,29.91,WNW,295,13.0,19.0,98,0.00,CLR,,0.00,WeatherDisplay:10.37,2013-02-09 02:15:00,
2013-02-08 18:30:00,51.1,49.4,29.91,WNW,303,18.0,22.0,94,0.00,CLR,,0.00,WeatherDisplay:10.37,2013-02-09 02:30:00,
2013-02-08 18:45:00,50.9,49.8,29.91,NW,309,10.0,18.0,96,0.00,CLR,,0.00,WeatherDisplay:10.37,2013-02-09 02:45:00,
2013-02-08 19:00:00,51.1,49.4,29.91,NW,321,9.0,14.0,94,0.00,CLR,,0.00,WeatherDisplay:10.37,2013-02-09 03:00:00,
2013-02-08 19:15:00,50.5,48.9,29.91,NNW,329,5.0,12.0,94,0.00,CLR,,0.00,WeatherDisplay:10.37,2013-02-09 03:15:00,
2013-02-08 19:30:00,49.8,48.2,29.91,NNE,23,3.0,6.0,94,0.00,CLR,,0.00,WeatherDisplay:10.37,2013-02-09 03:30:00,
2013-02-08 19:44:00,49.3,47.6,29.94,NNE,23,1.0,6.0,94,0.00,CLR,,0.00,WeatherDisplay:10.37,2013-02-09 03:44:00,
2013-02-08 20:00:00,48.7,47.4,29.94,NE,43,2.0,5.0,95,0.00,CLR,,0.00,WeatherDisplay:10.37,2013-02-09 04:00:00,
2013-02-08 20:14:00,48.9,47.3,29.94,NNE,33,2.0,5.0,94,0.00,CLR,,0.00,WeatherDisplay:10.37,2013-02-09 04:14:00,
2013-02-08 20:29:00,49.9,47.1,29.94,NNE,15,3.0,6.0,90,0.00,CLR,,0.00,WeatherDisplay:10.37,2013-02-09 04:29:00,
2013-02-08 21:00:00,50.3,46.2,29.94,WNW,286,2.0,7.0,86,0.00,CLR,,0.00,WeatherDisplay:10.37,2013-02-09 05:00:00,
2013-02-08 21:15:00,50.1,47.3,29.94,WNW,293,5.0,7.0,90,0.00,CLR,,0.00,WeatherDisplay:10.37,2013-02-09 05:15:00,
2013-02-08 21:30:00,49.3,46.8,29.94,South,176,2.0,6.0,91,0.00,CLR,,0.00,WeatherDisplay:10.37,2013-02-09 05:30:00,
2013-02-08 21:45:00,50.1,43.8,29.94,NNE,13,5.0,11.0,79,0.00,CLR,,0.00,WeatherDisplay:10.37,2013-02-09 05:45:00,
2013-02-08 22:00:00,50.5,40.7,29.94,WNW,297,2.0,9.0,69,0.00,CLR,,0.00,WeatherDisplay:10.37,2013-02-09 06:00:00,
2013-02-08 22:15:00,50.5,35.0,29.94,NW,306,2.0,7.0,55,0.00,CLR,,0.00,WeatherDisplay:10.37,2013-02-09 06:15:00,
2013-02-08 22:30:00,50.4,31.9,29.94,East,93,3.0,10.0,49,0.00,CLR,,0.00,WeatherDisplay:10.37,2013-02-09 06:30:00,
2013-02-08 23:00:00,50.9,28.0,29.94,NNW,347,2.0,10.0,41,0.00,CLR,,0.00,WeatherDisplay:10.37,2013-02-09 07:00:00,
2013-02-08 23:15:00,50.7,27.2,29.94,WNW,297,3.0,12.0,40,0.00,CLR,,0.00,WeatherDisplay:10.37,2013-02-09 07:15:00,
2013-02-08 23:30:00,50.5,27.1,29.94,NW,312,6.0,8.0,40,0.00,CLR,,0.00,WeatherDisplay:10.37,2013-02-09 07:30:00,
2013-02-08 23:45:00,51.1,28.8,29.94,WNW,297,12.0,15.0,42,0.00,CLR,,0.00,WeatherDisplay:10.37,2013-02-09 07:45:00,